www.pogodaiklimat.ru

Погода и климат >> Архив погоды >> Австралия >> Новый Южный Уэльс >> Айванхо


ПОГОДА в Айванхо

  • Прогноз погоды в Айванхо
  • Монитор погоды в Айванхо

АРХИВ ПОГОДЫ в Айванхо

Время (UTC), дата Ветер
(напр.,м/с)
 
Видим.   Явления Облачность Т
(С)
Тd
(С)
f
(%)
Тe
(С)
Тes
(С)
Комфортность P
(гПа)
Po
(гПа)
Тmin
(С)
Tmax
(С)
R
(мм)
R24
(мм)
S
(см)
19 15.08 С 4 н/о н/о +10.0 -4.0 37 +8 +8 1018.2 1006.1
20 15.08 С 4 н/о н/о +10.4 -4.4 35 +9 +9 1018.6 1006.5
22 15.08 С 4 н/о н/о +10.6 -4.2 35 +9 +9 1019.6 1007.5
23 15.08 С 5 н/о н/о +14.9 -3.9 27 +14 +14 1019.7 1007.6
01 16.08 СЗ 5 н/о н/о +20.4 -4.7 18 +20 +20 1018.9 1006.8
02 16.08 СЗ 6 н/о н/о +21.9 -5.0 16 +21 +21 комфорт 1018.3 1006.2 +8.7
04 16.08 З 5 н/о н/о +23.6 -7.4 12 +21 +21 комфорт 1017.0 1004.9
05 16.08 З 5 н/о н/о +24.6 -6.7 12 +22 +22 комфорт 1016.7 1004.6
07 16.08 З 5 н/о н/о +22.1 -5.7 15 +21 +21 комфорт 1017.1 1005.0
08 16.08 З 3 н/о н/о +20.2 -4.1 19 +20 +20 1017.2 1005.1
10 16.08 З 3 н/о н/о +17.6 -3.2 24 +18 +18 1018.1 1006.0
11 16.08 ЮЗ 5 н/о н/о +17.9 -2.9 24 +17 +17 1018.5 1006.4
13 16.08 ЮЗ 3 н/о н/о +14.6 +2.5 44 +14 +14 1019.2 1007.1
14 16.08 Ю 3 н/о н/о +12.7 +3.1 52 +12 +12 1019.1 1007.0 +25.2
16 16.08 Ю 4 н/о н/о +11.6 +5.7 67 +10 +10 1019.5 1007.4
17 16.08 Ю 3 н/о н/о +11.0 +6.2 72 +9 +9 1019.3 1007.2
19 16.08 ЮВ 3 н/о н/о +8.4 +5.5 82 +6 +6 1018.9 1006.8
20 16.08 ЮВ 3 н/о н/о +7.9 +5.4 84 +5 +5 1019.4 1007.3
22 16.08 ЮВ 4 н/о н/о +8.9 +5.5 79 +6 +6 1020.4 1008.3
23 16.08 ЮВ 4 н/о н/о +11.0 +6.0 71 +9 +9 1020.6 1008.5
01 17.08 В 4 н/о н/о +15.2 +4.6 49 +14 +14 1020.1 1008.0
02 17.08 В 4 н/о н/о +16.4 +1.3 36 +16 +16 1019.6 1007.5 +7.5
04 17.08 СЗ 1 н/о н/о +20.1 +2.5 31 +22 +22 комфорт 1017.5 1005.4
05 17.08 С 2 н/о н/о +20.7 +2.5 30 +22 +22 комфорт 1016.7 1004.6
07 17.08 С 2 н/о н/о +21.2 +2.0 28 +21 +21 комфорт 1016.1 1004.0
08 17.08 СВ 2 н/о н/о +18.5 +1.9 33 +19 +19 1016.2 1004.1
10 17.08 ЮВ 2 н/о н/о +15.1 +3.0 44 +15 +15 1017.0 1004.9
11 17.08 В 3 н/о н/о +13.3 +2.2 47 +12 +12 1016.8 1004.7
13 17.08 В 3 н/о н/о +13.1 +2.4 48 +12 +12 1016.2 1004.1
14 17.08 В 4 н/о н/о +13.2 +2.7 49 +12 +12 1015.9 1003.8 +21.6
16 17.08 СВ 4 н/о н/о +13.6 +2.5 47 +12 +12 1014.6 1002.5
17 17.08 СВ 4 н/о н/о +14.4 +1.3 41 +14 +14 1013.7 1001.6
19 17.08 С 6 н/о н/о +15.7 -0.1 34 +15 +15 1012.5 1000.5
20 17.08 С 6 н/о н/о +15.5 -0.3 34 +14 +14 1012.0 1000.0
22 17.08 С 6 н/о н/о +16.7 -2.4 27 +16 +16 1011.9 999.9
23 17.08 С 7 н/о н/о +18.3 -3.2 23 +18 +18 1011.7 999.7
01 18.08 С 9 н/о н/о +24.8 -3.6 15 +23 +23 комфорт 1009.8 997.8
02 18.08 С 10 н/о н/о +24.7 -3.6 15 +23 +23 комфорт 1008.6 996.6 +12.5
04 18.08 З 11 н/о н/о +21.0 -4.9 17 +20 +20 1008.2 996.2
05 18.08 З 9 н/о н/о +18.5 +2.8 35 +18 +18 1009.4 997.4
07 18.08 З 8 н/о н/о +15.9 +3.0 42 +14 +14 1012.1 1000.1
08 18.08 З 5 н/о н/о +14.5 +3.0 46 +13 +13 1012.9 1000.9
10 18.08 З 5 н/о н/о +13.1 +2.6 49 +11 +11 1015.3 1003.2
11 18.08 ЮЗ 6 н/о н/о +12.0 -0.8 41 +10 +10 1016.5 1004.4
13 18.08 ЮЗ 5 н/о н/о +9.5 -0.1 51 +7 +7 1017.6 1005.5
14 18.08 З 4 н/о н/о +8.5 +0.5 57 +6 +6 1018.2 1006.1 +27.0
16 18.08 З 4 н/о н/о +7.7 +1.1 63 +5 +5 1018.9 1006.8
17 18.08 З 4 н/о н/о +7.0 +1.5 68 +4 +4 1019.1 1007.0
19 18.08 З 5 н/о н/о +6.5 +2.6 76 +3 +3 1020.0 1007.9
20 18.08 З 5 н/о н/о +6.0 +2.5 78 +2 +2 1021.1 1009.0
22 18.08 З 6 н/о н/о +6.4 +2.3 75 +2 +2 1023.6 1011.4
23 18.08 ЮЗ 7 н/о н/о +7.9 +2.2 67 +4 +4 1024.7 1012.5
01 19.08 ЮЗ 8 н/о н/о +11.3 +1.0 49 +8 +8 1026.3 1014.1
02 19.08 ЮЗ 8 н/о н/о +12.3 -0.2 42 +10 +10 1026.2 1014.0 +5.7
04 19.08 ЮЗ 6 н/о н/о +13.8 -1.4 35 +12 +12 1025.6 1013.4
05 19.08 ЮЗ 7 н/о н/о +14.1 -1.9 33 +12 +12 1025.5 1013.3
07 19.08 ЮЗ 5 н/о н/о +13.7 -2.7 32 +12 +12 1026.4 1014.2
08 19.08 ЮЗ 4 н/о н/о +12.1 -2.5 36 +11 +11 1026.9 1014.7
10 19.08 З 3 н/о н/о +8.9 -2.4 45 +7 +7 1028.4 1016.2
11 19.08 З 3 н/о н/о +7.9 -2.1 49 +6 +6 1029.3 1017.1
13 19.08 З 3 н/о н/о +6.2 -2.2 55 +3 +3 1030.1 1017.8
14 19.08 З 4 н/о н/о +7.3 -1.4 54 +5 +5 1030.1 1017.8 +14.8
16 19.08 ЮЗ 4 н/о н/о +7.4 +0.2 60 +4 +4 1030.4 1018.1
17 19.08 З 4 н/о н/о +6.7 +0.6 65 +4 +4 1030.3 1018.0
19 19.08 ЮЗ 4 н/о н/о +5.5 +1.1 73 +2 +2 1029.6 1017.4
20 19.08 ЮЗ 3 н/о н/о +4.8 +1.1 77 +1 +1 1029.9 1017.7
22 19.08 З 3 н/о н/о +6.4 +2.3 75 +3 +3 1031.2 1018.9
23 19.08 ЮЗ 4 н/о н/о +9.6 +4.2 69 +7 +7 1031.7 1019.4
01 20.08 З 5 н/о н/о +13.1 +5.3 59 +11 +11 1031.6 1019.3
02 20.08 ЮЗ 5 н/о н/о +14.3 +4.6 52 +13 +13 1031.0 1018.7 +4.0
04 20.08 З 5 н/о н/о +16.4 +4.4 45 +16 +16 1028.9 1016.7
05 20.08 З 5 н/о н/о +17.2 +3.8 41 +17 +17 1028.2 1016.0
07 20.08 З 4 н/о н/о +17.0 +2.2 37 +17 +17 1027.6 1015.4
08 20.08 З 4 н/о н/о +15.4 +1.9 40 +15 +15 1027.7 1015.5
10 20.08 З 3 н/о н/о +11.7 +1.1 48 +11 +11 1027.9 1015.7
11 20.08 СЗ 3 н/о н/о +10.4 +1.2 53 +9 +9 1027.8 1015.6
13 20.08 СЗ 3 н/о н/о +9.3 +1.5 58 +7 +7 1027.5 1015.3
14 20.08 СЗ 3 н/о н/о +8.4 +1.3 61 +6 +6 1027.2 1015.0 +17.8
16 20.08 З 4 н/о н/о +9.1 +2.9 65 +7 +7 1026.9 1014.7
17 20.08 З 3 н/о н/о +7.8 +2.7 70 +5 +5 1026.3 1014.1
19 20.08 З 4 н/о н/о +7.7 +3.6 75 +5 +5 1025.7 1013.5
20 20.08 З 5 н/о н/о +9.8 +5.2 73 +7 +7 1026.2 1014.0
22 20.08 З 4 н/о н/о +11.5 +6.2 70 +10 +10 1026.9 1014.7
23 20.08 З 6 н/о н/о +12.7 +6.5 66 +10 +10 1027.0 1014.8
01 21.08 ЮЗ 7 н/о н/о +15.4 +6.7 56 +14 +14 1027.0 1014.8
02 21.08 ЮЗ 6 н/о н/о +16.0 +6.4 53 +15 +15 1026.4 1014.2 +6.6
04 21.08 З 6 н/о н/о +17.6 +6.5 48 +17 +17 1024.3 1012.1
05 21.08 ЮЗ 6 н/о н/о +18.1 +6.3 46 +18 +18 1023.9 1011.7
07 21.08 ЮЗ 7 н/о н/о +18.1 +6.0 45 +17 +17 1023.4 1011.2
08 21.08 З 6 н/о н/о +17.6 +6.5 48 +17 +17 1023.8 1011.6
10 21.08 З 4 н/о н/о +16.8 +6.3 50 +16 +16 1023.9 1011.7
11 21.08 З 4 н/о н/о +15.7 +6.4 54 +15 +15 1024.0 1011.8
13 21.08 ЮЗ 5 н/о н/о +15.1 +7.2 59 +14 +14 1024.2 1012.0
14 21.08 ЮЗ 5 н/о н/о +13.4 +7.4 67 +12 +12 1024.1 1011.9 +19.6
16 21.08 З 4 н/о н/о +11.6 +7.7 77 +9 +9 1024.1 1011.9
17 21.08 З 5 н/о н/о +10.8 +8.2 84 +8 +8 1023.8 1011.6
19 21.08 З 6 н/о н/о +10.3 +8.2 87 +7 +7 1023.7 1011.5
20 21.08 ЮЗ 6 н/о н/о +10.1 +7.5 84 +7 +7 1024.1 1011.9
22 21.08 З 5 н/о н/о +11.3 +7.0 75 +9 +9 1025.2 1013.0
23 21.08 ЮЗ 7 н/о н/о +12.8 +6.8 67 +10 +10 1025.7 1013.5
01 22.08 ЮЗ 8 н/о н/о +15.1 +6.7 57 +13 +13 1025.9 1013.7
02 22.08 ЮЗ 7 н/о н/о +16.7 +6.2 50 +15 +15 1025.0 1012.8 +9.8
04 22.08 Ю 7 н/о н/о +18.0 +5.6 44 +17 +17 1023.6 1011.4
05 22.08 Ю 7 н/о н/о +18.5 +5.0 41 +18 +18 1023.2 1011.0
07 22.08 Ю 8 н/о н/о +17.7 +4.6 42 +17 +17 1023.7 1011.5
08 22.08 Ю 7 н/о н/о +16.4 +4.4 45 +15 +15 1024.1 1011.9
10 22.08 Ю 4 н/о н/о +13.8 +4.4 53 +12 +12 1025.2 1013.0
11 22.08 Ю 4 н/о н/о +12.6 +4.1 56 +11 +11 1025.8 1013.6
13 22.08 Ю 3 н/о н/о +10.2 +3.7 64 +9 +9 1025.9 1013.7
14 22.08 Ю 3 н/о н/о +8.4 +2.8 68 +6 +6 1025.8 1013.6 +19.3
16 22.08 Ю 3 н/о н/о +6.0 +1.3 72 +3 +3 1025.5 1013.3
17 22.08 Ю 3 н/о н/о +5.2 +0.6 72 +2 +2 1025.5 1013.3
19 22.08 ЮЗ 2 н/о н/о +2.9 -0.5 78 -0 -0 1025.6 1013.4

 

Местоположение метеостанции Айванхо (Новый Южный Уэльс, Австралия): широта -32.88 долгота 144.32 высота над уровнем моря 100 м.

В архиве по умолчанию представлена погода в Айванхо за последнюю неделю. Архивные данные за месяц целиком и за предыдущие месяцы, начиная с января 2011 года, Вы можете получить, выбрав интересующий диапазон дат из раскрывающегося списка и нажав кнопку "Ввод!".


*Определитесь, кто Вы:
робот инопланетянин человек

Внимание! Время в таблицах - всемирное. Для получения местного времени необходимо прибавить поправку, которая равна 10 ч.

Смотрите также архив погоды в соседних городах и на ближайших метеорологических станциях:

Погода в Уилкании (Новый Южный Уэльс, Австралия) (175 км)
Погода в Хее (Новый Южный Уэльс, Австралия) (189 км)
Погода в Кобар аэропорту (Новый Южный Уэльс, Австралия) (205 км)
Погода в Кобаре (Новый Южный Уэльс, Австралия) (211 км)
Погода в Гриффите (Новый Южный Уэльс, Австралия) (223 км)
Погода в Уафт Клифс (Новый Южный Уэльс, Австралия) (255 км)
Погода в Милдьюре (Новый Южный Уэльс, Австралия) (256 км)
Погода в Кондоболине (Новый Южный Уэльс, Австралия) (271 км)
Погода в Янко (Новый Южный Уэльс, Австралия) (275 км)
Погода в Брокен-Хилл аэропорту (Новый Южный Уэльс, Австралия) (286 км)

Пояснения к столбцам:

Ветер - указаны скорость ветра в м/с - средняя за 10 мин, порывы в срок и между сроками (в фигурных скобках) и направление, откуда дует ветер: С - северный, СВ - северо-восточный, В - восточный, ЮВ - юго-восточный, Ю - южный, ЮЗ - юго-западный, З - западный, СЗ - северо-западный.
Видимость - горизонтальная дальность видимости в метрах или километрах. При видимости от 1 до 10 км при отсутствии осадков обычно наблюдается дымка, при ухудшении видимости до 1 км и менее - туман. В сухую погоду видимость может ухудшаться дымом, пылью или мглою.
Явления - указаны атмосферные явления, наблюдавшиеся в срок или в последний час перед сроком; фигурными скобками обозначены явления, наблюдавшиеся между сроками (за 1-3 часа до срока); квадратными скобками обозначены град или гололедные отложения с указанием их диаметра в мм.
Облачность - указаны через наклонную черту общая и нижняя облачность в баллах и высота нижней границы облаков в метрах; квадратными скобками обозначены формы облаков: Ci - перистые, Cs - перисто-слоистые, Cc - перисто-кучевые, Ac - высококучевые, As - высокослоистые, Sc - слоисто-кучевые, Ns - слоисто-дождевые, Cu - кучевые, Cb - кучево-дождевые. Подробнее классификацию облаков см. в Атласе облаков (PDF).
T - Температура воздуха - температура, измеренная на высоте 2 м над землей.
Td - Температура точки росы - температура, при понижении до которой содержащийся в воздухе водяной пар достигнет насыщения.
f - Относительная влажность воздуха - влажноcть воздуха, измеренная на высоте 2 м над землей.
Te - Эффективная температура - температура, которую ощущает одетый по сезону человек в тени. Характеристика душности погоды. При расчете учитывается влияние влажности воздуха и скорости ветра на теплоощущения человека.
Tes - Эффективная температура на солнце - температура, которую ощущает человек, с поправкой на солнечный нагрев. Характеристика знойности погоды. Зависит от высоты солнца над горизонтом, облачности и скорости ветра. Ночью, в пасмурную погоду, а также при ветре 12 м/с и более поправка равна нулю.
P - Атмосферное давление - приведенное к уровню моря атмосферное давление.
Po - Атмосферное давление - измеренное на уровне метеостанции атмосферное давление.
Tmin - Минимальная температура - минимум температуры воздуха на высоте 2 м над землей.
Tmax - Максимальная температура - максимум температуры воздуха на высоте 2 м над землей.
R - Количество осадков - Количество выпавших осадков за период времени, мм. При наведении курсора мыши на число - период времени, за который выпало указанное количество осадков.
R24 - Количество осадков - Количество выпавших осадков за 24 часа, мм.
S - Снежный покров - Высота снежного покрова, см. При наведении курсора мыши на число - состояние снежного покрова и степень покрытия местности в баллах.